Temp
11 11 10 10 8 8 9 9 9 9 10 10 11 11 11 12 12 12 12 12 13 12 12 12 13 12 12 12 12 13 12 12 12 13 12 12 13 12 12 13 12 13 12
8 9 10 10 9 8 8 8 8 9 9 10 10 12 11 12 12 12 12 14 14 13 13 13 12 12 12 11 12 12 11 12 12 12 12 12 12 12 12 12 12 13 13
5 6 7 8 8 8 8 8 8 8 9 9 10 10 11 11 11 12 13 13 13 14 14 14 13 12 11 11 12 12 12 12 12 12 12 11 11 12 12 13 13 13 13
3 3 4 4 5 6 6 7 7 8 8 9 10 10 10 11 11 11 12 13 13 13 13 13 12 12 11 12 12 12 12 12 11 11 11 11 11 12 12 12 12 13 13
2 2 1 2 3 4 5 5 7 7 8 9 9 10 10 10 11 11 12 14 14 13 12 12 12 11 11 11 11 11 11 11 11 11 11 11 11 11 11 12 12 12 12
2 1 1 1 1 1 3 5 5 8 8 9 9 9 10 10 10 12 13 13 12 13 12 12 11 11 11 11 11 11 11 11 11 11 11 11 11 11 10 10 12 11 11
2 2 1 0 0 -1 2 4 5 6 7 8 8 9 9 10 10 10 10 10 10 11 11 12 11 11 11 11 11 11 11 11 11 11 11 11 11 11 10 10 10 10 10
3 2 1 1 -0 -1 0 3 4 6 7 7 7 9 10 9 9 10 10 10 10 10 10 10 10 10 10 11 11 11 11 11 11 11 11 11 11 10 10 11 10 10 9
3 3 1 0 -0 -1 -0 1 4 5 6 7 8 8 8 9 9 9 9 9 9 9 10 10 10 10 10 10 10 10 10 11 10 10 10 10 10 10 9 9 9 9 9
3 2 2 1 -1 0 -0 1 3 4 6 6 7 7 8 8 9 8 8 9 9 9 9 9 9 9 10 10 10 10 10 10 10 10 10 9 10 9 9 9 9 9 9
5 3 2 1 0 0 0 0 1 2 4 5 5 6 7 7 7 7 8 8 9 8 8 8 8 9 9 9 9 9 10 9 9 9 9 9 9 9 9 9 9 9 9
5 4 2 2 1 1 1 1 1 2 4 4 3 4 5 6 7 7 6 6 5 6 7 8 8 9 8 9 9 9 8 8 8 8 8 9 9 9 9 9 8 9 9
5 5 4 3 2 2 1 1 1 3 3 3 3 4 4 5 5 5 6 6 6 7 7 7 7 7 7 7 8 8 8 8 8 8 8 8 8 8 7 7 7 7 7
5 4 4 4 4 3 3 3 3 4 5 5 5 5 5 5 5 5 5 6 6 6 6 6 6 6 6 6 6 6 6 6 6 6 6 6 6 6 7 7 7 7 6
6 5 4 4 4 4 4 4 4 4 4 4 4 4 4 4 4 4 4 4 4 5 5 5 5 5 4 4 4 4 4 4 4 4 3 4 4 5 5 4 5 5 4
8 6 4 4 3 3 3 4 4 4 4 3 3 4 3 3 3 3 3 4 4 4 4 4 4 4 4 3 3 3 3 3 3 3 4 3 3 3 3 3 2 0 -0
8 7 5 4 3 3 4 3 3 3 3 3 3 3 4 4 4 3 3 3 3 2 2 2 2 1 0 1 2 1 1 -1 -1 -1 -1 0 1 1 0 1 1 1 -1
8 7 5 5 5 5 5 5 4 4 4 4 4 4 3 3 3 2 1 1 1 0 1 0 -0 -1 -3 -3 -4 -4 -3 -3 -3 -3 -4 -4 -3 -2 -3 -3 -1 -1 -1
8 7 5 5 5 5 5 4 4 4 3 3 3 2 2 1 1 0 0 1 1 1 1 0 -0 -0 0 -0 1 0 1 1 0 -1 -3 -3 -3 -2 -2 -3 -3 -2 -2
8 7 7 6 6 5 5 4 4 3 3 2 2 2 1 1 0 1 0 0 0 0 0 1 1 2 1 -1 -0 -1 -3 -4 -4 -2 -4 -4 -4 -4 -4 -4 -4 -4 -3
8 8 7 7 6 5 5 4 4 3 2 2 2 1 1 1 0 1 0 0 -0 -0 0 0 -0 -1 -1 -1 -2 -5 -5 -5 -5 -5 -4 -4 -4 -4 -4 -4 -4 -4 -4
8 8 7 7 6 5 5 4 3 2 2 1 1 1 1 0 -0 -0 -1 -1 -2 -2 -1 -0 -0 -2 -3 -3 -2 -5 -5 -5 -5 -5 -5 -5 -4 -4 -4 -4 -4 -3 -3
8 8 7 6 5 5 4 3 3 2 1 1 0 -1 -1 -2 -3 -3 -4 -4 -5 -4 -4 -3 -1 0 -2 -3 -4 -4 -5 -6 -6 -5 -5 -5 -4 -4 -3 -3 -3 -4 -3
8 7 6 5 5 5 4 3 2 2 1 -0 -1 -1 -2 -3 -3 -4 -5 -5 -6 -6 -5 -5 -4 -2 -1 -2 -2 -2 -4 -4 -4 -5 -5 -4 -3 -3 -2 -3 -3 -3 -2
7 6 6 6 5 4 4 3 2 1 1 0 -0 -1 -1 -1 -2 -3 -4 -4 -5 -5 -5 -5 -6 -7 -7 -5 -7 -7 -7 -6 -5 -6 -4 -3 -3 -3 -2 -3 -3 -2 -1
6 6 6 5 5 4 3 2 2 1 0 0 -1 -2 -2 -3 -4 -4 -4 -5 -5 -5 -6 -5 -7 -7 -8 -7 -8 -7 -6 -5 -6 -6 -6 -5 -4 -4 -3 -3 -2 -2 -2
Height
1479 1477 1475 1472 1468 1466 1465 1465 1467 1469 1472 1474 1476 1478 1480 1483 1487 1490 1492 1493 1494 1495 1496 1497 1498 1498 1498 1498 1499 1500 1501 1501 1502 1503 1504 1501 1504 1505 1506 1504 1510 1511 1513
1478 1473 1469 1466 1464 1461 1460 1459 1460 1462 1464 1468 1472 1474 1477 1480 1482 1484 1486 1487 1488 1489 1490 1491 1492 1493 1493 1492 1492 1494 1495 1494 1496 1497 1499 1497 1496 1497 1498 1499 1502 1505 1508
1476 1471 1467 1463 1461 1459 1456 1455 1455 1456 1459 1461 1467 1470 1473 1475 1477 1479 1481 1482 1483 1485 1485 1485 1485 1485 1486 1486 1487 1488 1488 1489 1489 1490 1492 1489 1487 1490 1489 1489 1491 1496 1500
1475 1471 1466 1462 1457 1453 1450 1450 1450 1450 1453 1457 1460 1464 1467 1470 1472 1475 1477 1478 1479 1480 1479 1479 1479 1478 1479 1479 1479 1480 1479 1481 1480 1482 1482 1484 1485 1482 1483 1484 1483 1483 1491
1475 1470 1465 1459 1454 1451 1447 1444 1444 1446 1449 1451 1456 1458 1462 1466 1468 1470 1472 1474 1474 1473 1473 1472 1471 1471 1471 1469 1470 1470 1470 1470 1471 1473 1475 1474 1474 1473 1478 1476 1476 1478 1481
1476 1471 1465 1457 1451 1447 1443 1441 1439 1440 1445 1447 1451 1454 1458 1463 1464 1466 1467 1468 1468 1468 1467 1465 1463 1463 1461 1460 1460 1461 1461 1461 1462 1463 1464 1463 1464 1466 1468 1469 1469 1471 1474
1475 1469 1465 1458 1451 1445 1440 1436 1436 1438 1441 1444 1446 1451 1455 1459 1461 1462 1464 1464 1464 1463 1463 1461 1459 1457 1453 1452 1453 1453 1452 1453 1454 1454 1452 1453 1453 1457 1459 1462 1463 1464 1466
1473 1470 1465 1458 1452 1445 1438 1435 1434 1435 1438 1440 1443 1445 1451 1455 1456 1458 1457 1459 1459 1460 1459 1458 1457 1454 1449 1447 1447 1446 1445 1446 1447 1448 1449 1450 1451 1453 1455 1454 1457 1457 1457
1473 1470 1465 1460 1454 1447 1440 1436 1434 1434 1437 1438 1440 1443 1448 1451 1452 1455 1456 1456 1456 1455 1456 1455 1454 1452 1449 1445 1444 1443 1441 1442 1443 1443 1444 1445 1446 1447 1449 1450 1452 1454 1452
1473 1470 1466 1460 1455 1450 1444 1440 1437 1436 1437 1439 1440 1442 1446 1448 1450 1452 1452 1452 1452 1453 1452 1451 1450 1447 1445 1444 1442 1440 1440 1440 1441 1441 1441 1441 1442 1442 1444 1445 1446 1446 1445
1472 1469 1465 1461 1457 1453 1449 1445 1442 1441 1440 1440 1441 1443 1444 1446 1448 1448 1448 1448 1448 1447 1447 1446 1445 1443 1442 1440 1439 1438 1434 1437 1436 1436 1436 1436 1438 1437 1437 1438 1438 1438 1438
1469 1470 1465 1462 1461 1457 1452 1451 1448 1445 1444 1444 1443 1443 1444 1445 1446 1446 1442 1444 1446 1445 1446 1444 1443 1441 1440 1436 1435 1433 1433 1432 1431 1430 1431 1430 1430 1430 1429 1429 1428 1429 1430
1469 1467 1465 1463 1461 1459 1457 1455 1452 1450 1448 1446 1446 1446 1445 1446 1448 1449 1449 1449 1448 1446 1444 1443 1441 1439 1436 1434 1432 1430 1429 1428 1427 1426 1425 1426 1424 1424 1422 1420 1420 1419 1419
1466 1466 1464 1462 1459 1457 1455 1454 1453 1452 1451 1450 1449 1449 1450 1450 1450 1449 1448 1446 1444 1442 1441 1439 1436 1434 1432 1429 1427 1426 1425 1424 1423 1422 1421 1420 1419 1416 1415 1413 1412 1410 1408
1464 1464 1463 1460 1459 1457 1456 1454 1453 1452 1451 1451 1450 1449 1449 1449 1448 1446 1445 1443 1441 1440 1438 1436 1433 1431 1429 1426 1424 1423 1420 1418 1417 1415 1414 1412 1410 1409 1408 1406 1403 1402 1400
1461 1461 1460 1458 1458 1456 1455 1454 1453 1453 1452 1451 1450 1449 1448 1446 1445 1444 1442 1440 1439 1437 1435 1433 1431 1428 1426 1424 1421 1419 1416 1414 1412 1410 1407 1405 1403 1401 1400 1397 1395 1395 1393
1458 1459 1459 1458 1458 1456 1455 1454 1453 1452 1451 1450 1448 1447 1446 1445 1443 1442 1440 1438 1436 1433 1431 1429 1426 1424 1421 1418 1415 1412 1410 1407 1406 1404 1401 1399 1397 1395 1393 1391 1388 1386 1385
1453 1454 1454 1453 1453 1452 1452 1452 1451 1450 1449 1448 1447 1445 1444 1442 1440 1438 1436 1434 1432 1430 1427 1424 1422 1419 1417 1413 1410 1407 1404 1402 1400 1398 1396 1393 1389 1388 1386 1382 1378 1376 1375
1449 1450 1451 1451 1451 1451 1451 1451 1450 1449 1448 1446 1444 1442 1440 1438 1436 1434 1432 1430 1428 1426 1424 1421 1418 1416 1413 1410 1407 1404 1401 1398 1395 1393 1390 1387 1383 1380 1379 1375 1370 1367 1364
1446 1446 1447 1448 1448 1448 1448 1448 1447 1446 1445 1443 1441 1439 1437 1435 1433 1431 1429 1427 1425 1423 1421 1419 1416 1413 1411 1408 1405 1400 1397 1394 1391 1387 1383 1381 1379 1376 1374 1370 1366 1359 1356
1440 1441 1442 1444 1444 1444 1445 1445 1444 1443 1442 1440 1438 1436 1434 1432 1430 1428 1426 1424 1422 1420 1418 1416 1413 1410 1407 1404 1401 1399 1396 1392 1387 1383 1379 1375 1373 1369 1366 1363 1358 1351 1347
1436 1437 1438 1439 1439 1439 1441 1441 1441 1441 1439 1437 1436 1434 1432 1430 1428 1425 1423 1421 1419 1417 1414 1412 1409 1406 1403 1400 1397 1394 1391 1387 1383 1377 1372 1367 1364 1361 1357 1353 1348 1344 1340
1432 1433 1434 1436 1436 1437 1437 1438 1438 1437 1436 1435 1433 1432 1430 1429 1426 1423 1421 1419 1417 1414 1411 1407 1404 1402 1398 1395 1392 1388 1384 1380 1374 1369 1364 1359 1355 1350 1346 1342 1339 1336 1332
1425 1428 1429 1430 1430 1431 1432 1432 1432 1432 1432 1432 1431 1429 1427 1425 1423 1420 1418 1416 1415 1412 1408 1404 1400 1397 1394 1390 1386 1380 1374 1370 1365 1359 1354 1351 1347 1343 1339 1334 1330 1327 1323
1419 1420 1422 1423 1425 1426 1428 1428 1428 1428 1428 1427 1425 1423 1421 1420 1419 1417 1415 1413 1410 1406 1402 1401 1398 1394 1390 1387 1383 1379 1373 1368 1362 1355 1349 1345 1340 1335 1331 1327 1323 1321 1319
1411 1412 1415 1417 1420 1422 1423 1424 1424 1424 1423 1422 1421 1419 1418 1416 1414 1412 1410 1409 1407 1405 1401 1395 1393 1392 1388 1384 1380 1375 1369 1364 1358 1353 1348 1343 1337 1332 1327 1323 1319 1316 1313
Wind_Speed
27 25 24 23 22 22 23 25 26 29 25 26 29 21 24 23 22 18 18 16 17 18 18 21 22 21 25 27 28 27 28 30 33 33 35 39 39 36 35 38 38 26 23
26 24 21 21 21 22 21 23 25 24 25 26 24 28 21 21 18 17 19 21 22 21 22 23 24 24 25 27 29 29 30 30 31 34 34 27 30 41 37 33 35 36 35
23 22 17 17 17 18 19 21 23 24 23 25 26 20 22 19 18 21 22 21 21 22 23 25 28 29 29 29 30 32 32 36 35 36 33 11 19 23 31 38 31 34 35
19 19 17 16 14 11 10 14 19 21 22 21 24 25 22 21 16 15 18 19 20 21 24 27 28 31 32 33 34 37 40 38 38 36 44 39 31 12 17 25 27 32 38
20 20 21 14 13 16 16 15 13 16 19 18 22 23 24 19 14 13 18 21 22 22 24 28 31 32 35 38 36 37 39 42 41 37 40 36 37 35 21 17 21 24 30
18 20 20 16 15 16 12 12 13 16 17 18 21 21 21 16 14 16 18 18 19 21 20 22 25 28 30 33 34 34 38 39 41 41 41 43 40 39 44 36 31 26 27
14 20 26 24 23 21 13 7 8 11 14 18 21 21 18 16 15 12 14 12 13 14 16 18 17 19 27 30 27 28 31 31 34 33 45 49 45 39 38 37 33 32 32
13 16 20 25 24 22 10 2 4 11 16 15 18 20 21 19 17 18 18 15 17 20 19 14 14 14 10 16 24 27 21 27 34 33 33 34 29 27 29 32 28 27 27
13 13 15 16 21 24 18 11 6 8 11 15 18 17 18 21 19 17 16 16 17 16 17 15 14 12 13 10 8 10 18 28 25 18 29 35 33 35 34 33 34 35 33
9 10 12 15 18 19 20 20 17 10 7 11 15 17 17 17 18 19 20 20 17 18 16 16 13 11 10 10 9 9 9 12 15 18 19 24 27 31 35 36 32 34 44
9 9 10 12 13 16 17 18 19 19 16 11 9 10 12 13 13 11 14 18 17 14 11 13 11 11 11 10 11 14 14 17 18 19 22 24 27 30 34 34 35 40 40
9 8 7 10 10 13 12 13 13 14 15 15 14 9 11 7 7 11 4 5 6 7 8 9 11 12 12 12 13 14 17 18 19 20 23 22 23 25 23 21 19 23 31
8 9 7 8 8 7 7 8 10 12 12 9 9 10 9 6 3 2 2 3 4 5 7 8 9 10 11 12 14 15 17 19 20 23 25 27 29 30 31 32 34 34 36
10 7 7 7 7 6 6 6 7 9 8 8 8 6 5 3 1 2 4 5 6 8 10 11 12 13 14 16 17 18 19 20 21 22 23 25 26 27 30 32 34 35 39
10 9 7 6 5 3 3 3 4 6 6 6 6 6 5 5 5 6 7 8 9 9 10 10 11 13 14 16 17 19 20 20 21 21 22 22 23 26 27 29 31 32 34
11 10 9 6 5 4 4 4 3 4 4 5 5 6 7 7 7 8 9 9 10 10 11 11 11 12 13 14 15 18 18 19 20 22 22 23 25 26 27 29 30 27 28
11 11 9 7 5 6 5 4 4 4 5 6 8 8 9 8 9 9 10 11 12 12 13 13 14 14 15 18 20 21 21 18 19 21 22 22 23 24 26 29 31 32 30
13 12 11 10 9 8 6 6 5 5 6 7 9 10 10 11 12 12 13 13 13 13 14 14 15 15 13 17 18 19 20 21 21 22 23 24 28 27 27 31 34 34 33
13 12 11 10 10 9 8 7 8 7 7 8 9 11 12 12 12 13 14 15 15 15 15 15 16 17 18 20 24 24 24 24 25 26 27 28 32 33 30 30 33 37 38
13 14 13 13 12 11 10 10 10 9 8 9 11 12 13 13 13 14 15 15 15 14 15 16 18 19 18 19 21 22 23 25 27 29 33 32 29 28 28 30 34 38 36
17 17 16 16 14 14 13 12 12 10 10 11 12 13 14 14 14 14 14 14 14 15 15 16 17 18 18 19 21 19 20 23 27 31 33 32 31 32 32 32 35 38 37
18 19 19 18 17 17 15 14 13 11 11 12 13 13 14 14 14 15 14 14 12 13 14 15 16 18 19 21 22 22 21 24 28 32 35 36 34 34 32 33 35 34 33
20 20 20 19 18 17 16 15 13 12 12 13 13 14 14 13 13 14 13 13 11 13 13 15 18 20 23 26 25 24 26 28 30 32 34 34 35 34 33 32 31 29 30
24 23 22 21 20 19 18 15 13 13 13 13 13 13 13 13 12 13 11 12 11 13 16 17 18 21 23 25 27 30 33 34 36 37 36 34 33 27 25 25 24 26 19
25 25 24 22 21 20 17 15 14 13 13 13 13 12 12 14 14 12 13 14 11 15 16 17 19 21 25 26 26 28 30 33 34 35 33 32 31 27 27 27 23 16 19
27 28 27 24 22 20 17 16 14 14 13 14 13 13 14 13 12 13 13 13 15 17 15 12 14 20 20 21 24 26 27 28 27 27 26 28 28 27 25 25 23 21 21
Wind_Direction
305 297 292 286 277 272 274 253 245 240 234 242 223 221 229 228 230 231 234 239 248 251 247 256 260 259 261 263 259 258 261 263 257 251 256 255 256 246 243 250 261 246 253
323 311 299 291 280 276 268 256 243 239 233 226 238 229 228 229 228 240 243 250 253 254 260 261 260 260 261 264 263 263 261 258 262 250 255 254 253 251 245 235 240 259 258
337 343 336 324 301 281 273 258 243 239 234 227 224 227 218 220 211 224 240 250 261 269 270 268 266 264 261 263 265 267 263 258 261 256 239 246 241 249 244 243 246 257 256
343 341 330 325 304 286 263 261 250 238 230 229 223 224 223 226 230 234 246 256 261 267 268 273 276 276 270 268 269 269 264 260 257 259 250 258 244 236 241 230 234 243 253
357 346 343 327 328 302 279 249 236 245 228 227 220 221 226 227 229 239 253 266 274 279 278 279 277 271 269 272 269 267 261 260 260 257 254 255 234 238 234 230 229 231 234
349 357 356 351 347 331 301 264 238 218 229 218 214 218 221 225 234 250 257 263 280 282 284 279 272 270 267 263 261 262 262 262 263 265 260 237 235 238 234 235 233 242 247
340 358 355 0 2 356 333 286 236 240 224 219 214 206 219 229 233 239 251 261 267 276 277 286 287 283 271 260 265 267 261 261 259 265 250 244 235 247 237 237 240 244 253
333 340 343 345 1 9 7 309 175 190 209 217 214 210 218 224 226 236 250 246 262 267 266 276 282 289 277 259 264 271 265 262 263 260 263 265 237 237 238 235 240 252 256
338 344 343 347 10 8 34 66 105 146 187 192 198 201 214 225 230 227 244 245 240 241 261 271 281 285 290 288 284 304 276 261 263 258 259 252 255 259 258 258 260 259 260
341 347 352 359 355 8 35 61 80 95 139 180 196 196 208 223 228 230 229 242 246 257 260 258 266 274 274 283 291 274 267 264 272 284 286 276 272 268 265 263 261 258 260
335 348 349 3 3 10 24 45 64 72 84 110 135 181 195 211 205 204 227 227 232 237 257 273 282 278 280 276 275 267 265 259 262 266 264 267 272 272 273 271 269 266 266
324 351 342 343 354 8 23 30 38 50 64 68 72 96 133 151 206 222 247 302 284 283 280 276 281 284 292 290 283 278 272 274 271 268 265 260 253 250 248 248 254 262 265
300 324 333 339 350 13 24 32 42 67 67 62 58 66 70 70 52 87 232 261 271 289 296 297 295 297 301 298 293 291 287 286 285 282 281 280 280 278 277 275 275 273 275
272 282 315 324 336 2 26 41 48 60 76 80 82 81 82 82 46 337 326 322 316 314 315 317 319 319 317 310 309 305 302 298 294 292 292 291 289 289 288 287 288 288 287
243 259 265 286 302 337 6 43 48 49 57 61 55 48 34 15 359 348 345 341 337 334 331 329 327 323 320 313 314 314 314 312 308 304 301 297 291 287 287 287 286 286 288
240 240 243 258 267 290 327 348 7 26 42 35 23 14 6 0 355 352 351 346 342 339 335 331 330 325 320 316 317 315 312 308 303 299 295 294 296 296 292 292 288 285 285
239 235 236 241 246 270 291 299 311 341 357 360 359 356 352 347 343 341 342 343 343 344 344 341 339 334 333 327 328 330 330 325 318 312 305 300 294 290 292 290 288 289 292
227 224 224 236 251 264 275 284 295 312 328 339 342 343 344 343 343 344 342 341 342 341 340 338 338 337 335 330 335 332 330 321 318 313 312 306 305 301 297 294 290 288 290
229 225 226 236 250 262 270 279 288 297 310 322 332 335 338 339 336 332 333 335 335 336 337 335 333 330 329 322 319 316 316 315 315 316 315 315 310 309 306 300 293 288 286
220 225 237 244 253 260 268 276 279 286 301 315 324 327 329 328 325 323 325 327 328 329 331 329 324 320 320 319 319 322 326 325 324 320 320 319 311 303 299 294 292 289 290
226 233 237 244 249 251 262 267 271 279 290 307 316 321 321 321 318 318 320 322 323 324 325 323 322 320 320 322 323 328 327 325 321 317 315 312 308 304 301 296 291 289 295
226 232 236 242 245 251 258 262 268 276 289 302 312 317 318 316 315 315 317 318 317 317 320 321 322 323 323 327 329 330 328 327 319 315 315 313 311 306 299 294 291 287 289
235 236 238 243 245 252 258 262 272 278 289 301 311 316 316 316 312 314 315 318 315 314 318 321 322 325 327 331 329 326 328 325 325 322 317 314 314 312 307 302 297 292 290
238 238 237 237 242 249 255 259 263 278 287 297 303 309 313 307 313 311 310 311 311 314 319 321 321 322 322 328 328 325 323 328 328 327 323 323 322 314 314 310 303 297 287
242 237 238 238 242 249 252 256 262 271 280 286 293 300 304 307 309 310 307 307 305 308 317 319 320 323 321 325 323 320 322 324 323 321 322 322 326 321 317 320 315 309 306
243 237 235 236 242 245 253 259 267 272 277 282 288 292 298 299 303 305 312 308 308 316 324 325 321 315 311 317 318 325 322 325 326 324 325 325 329 326 314 321 310 306 311